Location: Baggett Branch
(32.6074°N, 97.0167°W)
Time: 19:41:42
(UTC+00:00)

Tiangong - Visible Passes

Search period start: 10 April 2026 00:00
Search period end: 20 April 2026 00:00
Orbit: 378 x 384 km, 41.5° (Epoch: 10 April)

Date Brightness Start Highest point End Pass type
(mag) Time Alt. Az. Time Alt. Az. Time Alt. Az.
10 Apr -0.3 01:45:10 10° NW 01:47:45 23° NNE 01:49:42 13° ENE visible
10 Apr 1.4 03:21:35 10° WNW 03:21:51 12° WNW 03:21:51 12° WNW visible
11 Apr -1.9 02:20:52 10° NW 02:23:57 54° NNE 02:24:00 54° NNE visible
12 Apr -0.9 01:20:10 10° NW 01:23:03 32° NNE 01:25:54 10° E visible
12 Apr 0.3 02:56:53 10° WNW 02:58:18 22° W 02:58:18 22° W visible
13 Apr -2.2 01:55:52 10° WNW 01:59:01 80° SSW 02:00:28 29° SE visible
14 Apr -0.1 02:32:18 10° W 02:34:37 19° SW 02:34:47 19° SW visible
15 Apr -1.1 01:30:50 10° WNW 01:33:47 39° SW 01:36:44 10° SE visible
